TimeEEST,TemperatureF,Dew PointF,Humidity,Sea Level PressureIn,VisibilityMPH,Wind Direction,Wind SpeedMPH,Gust SpeedMPH,PrecipitationIn,Events,Conditions,WindDirDegrees,DateUTC
12:20 AM,51.8,48.2,88,30.04,6.2,NE,3.5,-,N/A,,Scattered Clouds,40,2012-10-04 21:20:00
12:50 AM,51.8,48.2,88,30.04,6.2,Variable,1.2,-,N/A,,Scattered Clouds,0,2012-10-04 21:50:00
1:20 AM,50.0,48.2,94,30.04,6.2,SSE,3.5,-,N/A,,Scattered Clouds,160,2012-10-04 22:20:00
1:50 AM,51.8,48.2,88,30.04,6.2,Variable,1.2,-,N/A,,Scattered Clouds,0,2012-10-04 22:50:00
2:20 AM,48.2,46.4,93,30.04,6.2,WNW,3.5,-,N/A,,Scattered Clouds,290,2012-10-04 23:20:00
2:50 AM,48.2,46.4,93,30.04,6.2,Variable,1.2,-,N/A,,Scattered Clouds,0,2012-10-04 23:50:00
3:00 AM,47,46,92,29.99,12,,1.2,,,,Partly Cloudy,,2012-10-05 00:00:00
3:20 AM,46.4,44.6,93,30.04,6.2,Variable,1.2,-,N/A,,Scattered Clouds,0,2012-10-05 00:20:00
3:50 AM,48.2,44.6,87,30.04,6.2,NE,3.5,-,N/A,,Scattered Clouds,40,2012-10-05 00:50:00
4:20 AM,46.4,44.6,93,30.04,6.2,ENE,2.3,-,N/A,,Scattered Clouds,60,2012-10-05 01:20:00
4:50 AM,46.4,44.6,93,30.04,6.2,Variable,2.3,-,N/A,,Scattered Clouds,0,2012-10-05 01:50:00
5:20 AM,46.4,44.6,93,30.04,6.2,Variable,2.3,-,N/A,,Scattered Clouds,0,2012-10-05 02:20:00
5:50 AM,44.6,42.8,93,30.04,6.2,Variable,2.3,-,N/A,,Scattered Clouds,0,2012-10-05 02:50:00
6:20 AM,44.6,42.8,93,30.04,6.2,Variable,1.2,-,N/A,,Scattered Clouds,0,2012-10-05 03:20:00
6:50 AM,44.6,42.8,93,30.06,6.2,Variable,1.2,-,N/A,,Scattered Clouds,0,2012-10-05 03:50:00
7:20 AM,46.4,44.6,93,30.06,6.2,South,2.3,-,N/A,,Partly Cloudy,170,2012-10-05 04:20:00
7:50 AM,48.2,46.4,93,30.06,6.2,NE,1.2,-,N/A,,Partly Cloudy,50,2012-10-05 04:50:00
8:20 AM,50.0,46.4,87,30.06,6.2,Variable,1.2,-,N/A,,Partly Cloudy,0,2012-10-05 05:20:00
8:50 AM,51.8,48.2,88,30.06,6.2,Variable,2.3,-,N/A,,Partly Cloudy,0,2012-10-05 05:50:00
9:00 AM,52,47,79,30.04,12,,2.3,,,,Scattered Clouds,,2012-10-05 06:00:00
9:20 AM,53.6,50.0,88,30.09,6.2,Variable,2.3,-,N/A,,Partly Cloudy,0,2012-10-05 06:20:00
9:50 AM,57.2,51.8,82,30.09,6.2,Variable,2.3,-,N/A,,Partly Cloudy,0,2012-10-05 06:50:00
10:20 AM,60.8,50.0,68,30.09,6.2,Variable,2.3,-,N/A,,Partly Cloudy,0,2012-10-05 07:20:00
10:50 AM,64.4,51.8,64,30.09,6.2,Variable,2.3,-,N/A,,Partly Cloudy,0,2012-10-05 07:50:00
11:20 AM,66.2,50.0,56,30.06,6.2,Variable,2.3,-,N/A,,Partly Cloudy,0,2012-10-05 08:20:00
11:50 AM,69.8,50.0,49,30.06,6.2,Variable,2.3,-,N/A,,Partly Cloudy,0,2012-10-05 08:50:00
12:20 PM,68.0,50.0,52,30.06,6.2,West,4.6,-,N/A,,Partly Cloudy,260,2012-10-05 09:20:00
12:50 PM,69.8,48.2,46,30.06,6.2,Variable,4.6,-,N/A,,Scattered Clouds,0,2012-10-05 09:50:00
1:20 PM,71.6,44.6,38,30.06,6.2,Variable,4.6,-,N/A,,Scattered Clouds,0,2012-10-05 10:20:00
1:50 PM,73.4,42.8,33,30.06,6.2,Variable,3.5,-,N/A,,Scattered Clouds,0,2012-10-05 10:50:00
2:20 PM,73.4,42.8,33,30.06,6.2,East,5.8,-,N/A,,Scattered Clouds,100,2012-10-05 11:20:00
2:50 PM,75.2,42.8,31,30.04,6.2,West,4.6,-,N/A,,Scattered Clouds,260,2012-10-05 11:50:00
3:00 PM,75,41,19,29.96,12,West,4.6,,,,Partly Cloudy,260,2012-10-05 12:00:00
3:20 PM,75.2,41.0,29,30.04,6.2,Variable,3.5,-,N/A,,Scattered Clouds,0,2012-10-05 12:20:00
3:50 PM,73.4,42.8,33,30.04,6.2,North,16.1,-,N/A,,Scattered Clouds,10,2012-10-05 12:50:00
4:20 PM,73.4,41.0,31,30.06,6.2,North,12.7,-,N/A,Thunderstorm,Thunderstorm,10,2012-10-05 13:20:00
4:50 PM,69.8,42.8,38,30.06,6.2,ENE,13.8,-,N/A,Thunderstorm,Thunderstorm,70,2012-10-05 13:50:00
5:20 PM,69.8,44.6,40,30.06,6.2,ENE,8.1,-,N/A,,Scattered Clouds,70,2012-10-05 14:20:00
5:50 PM,68.0,44.6,43,30.09,6.2,ENE,9.2,-,N/A,,Scattered Clouds,70,2012-10-05 14:50:00
6:20 PM,68.0,44.6,43,30.09,6.2,NE,8.1,-,N/A,,Scattered Clouds,50,2012-10-05 15:20:00
6:50 PM,66.2,48.2,52,30.09,6.2,NNE,9.2,-,N/A,,Scattered Clouds,20,2012-10-05 15:50:00
7:20 PM,66.2,48.2,52,30.12,6.2,North,9.2,-,N/A,,Scattered Clouds,350,2012-10-05 16:20:00
7:50 PM,66.2,50.0,56,30.12,6.2,NE,8.1,-,N/A,,Scattered Clouds,40,2012-10-05 16:50:00
8:20 PM,64.4,50.0,59,30.12,6.2,NE,6.9,-,N/A,,Scattered Clouds,40,2012-10-05 17:20:00
8:50 PM,62.6,48.2,59,30.12,6.2,NE,4.6,-,N/A,,Scattered Clouds,50,2012-10-05 17:50:00
9:00 PM,63,48,47,30.08,12,NE,4.6,,,,Partly Cloudy,50,2012-10-05 18:00:00
9:20 PM,60.8,48.2,63,30.12,6.2,NE,5.8,-,N/A,,Scattered Clouds,40,2012-10-05 18:20:00
9:50 PM,59.0,48.2,67,30.15,6.2,Variable,2.3,-,N/A,,Scattered Clouds,0,2012-10-05 18:50:00
10:20 PM,59.0,48.2,67,30.15,6.2,Variable,2.3,-,N/A,,Scattered Clouds,0,2012-10-05 19:20:00
10:50 PM,57.2,48.2,72,30.15,6.2,Variable,2.3,-,N/A,,Scattered Clouds,0,2012-10-05 19:50:00
11:20 PM,57.2,48.2,72,30.15,6.2,NNE,6.9,-,N/A,,Scattered Clouds,20,2012-10-05 20:20:00
11:50 PM,55.4,48.2,77,30.15,6.2,Variable,2.3,-,N/A,,Scattered Clouds,0,2012-10-05 20:50:00